EW8528 Weather Reports


Display with metric or nautical units.
time (UTC)temp
F
wind
direction
speed
MPH
gust
MPH
rain 1hr
in
rain 24hr
in
rain mn
in
humidity
%
barometer
mb
20260507070049 54 145 1.0 4.0 0.00 0.08 0.01 82 1005.8
20260507064556 54 135 1.0 6.0 0.00 0.08 0.01 83 1005.8
20260507063051 55 161 2.0 7.0 0.00 0.08 0.01 88 1005.8
20260507061550 56 130 1.0 3.0 0.01 0.08 0.01 88 1005.6
20260507060052 56 130 0.0 4.0 0.01 0.08 0.01 88 1005.9
20260507054550 56 146 0.0 7.0 0.01 0.08 0.01 88 1006.0
20260507053050 57 124 1.0 6.0 0.01 0.08 0.01 88 1006.2
20260507051545 57 161 0.0 7.0 0.00 0.07 0.00 89 1005.7
20260507050045 58 154 1.0 6.0 0.00 0.07 0.00 92 1005.8
20260507044543 58 161 2.0 5.0 0.00 0.07 0.00 92 1006.0
20260507043048 59 156 1.0 5.0 0.00 0.07 0.00 93 1005.8
20260507041558 59 87 0.0 2.0 0.00 0.07 0.00 94 1005.9
20260507040104 59 113 0.0 1.0 0.00 0.07 0.00 94 1006.1
20260507034556 59 155 0.0 2.0 0.00 0.07 0.07 94 1006.0
20260507033045 59 0 0.0 7.0 0.00 0.07 0.07 93 1006.0
20260507031548 59 328 1.0 4.0 0.00 0.07 0.07 93 1005.6
20260507030054 59 0 0.0 4.0 0.00 0.07 0.07 93 1005.4
20260507024548 59 73 1.0 4.0 0.00 0.07 0.07 94 1005.7
20260507023048 58 0 0.0 4.0 0.00 0.07 0.07 94 1005.6
20260507021548 58 89 0.0 2.0 0.00 0.07 0.07 94 1005.8
20260507020053 58 22 1.0 3.0 0.00 0.07 0.07 94 1005.6
20260507014600 58 91 1.0 5.0 0.00 0.07 0.07 94 1005.6
20260507013048 58 108 1.0 6.0 0.00 0.07 0.07 94 1005.8
20260507011557 58 65 1.0 5.0 0.00 0.07 0.07 94 1006.0
20260507010052 58 220 2.0 5.0 0.00 0.07 0.07 94 1006.1
20260507004553 57 110 1.0 5.0 0.01 0.07 0.07 93 1006.0
20260507003052 58 335 1.0 6.0 0.01 0.07 0.07 93 1006.1
20260507001559 58 0 1.0 6.0 0.02 0.07 0.07 93 1006.0
20260507000057 58 71 1.0 6.0 0.03 0.07 0.07 93 1005.7
20260506234555 58 0 0.0 6.0 0.02 0.06 0.06 93 1006.0
20260506233052 58 0 0.0 4.0 0.02 0.06 0.06 93 1005.7
20260506231551 59 318 1.0 4.0 0.01 0.05 0.05 92 1005.7
20260506230048 59 0 1.0 5.0 0.00 0.04 0.04 92 1005.8
20260506224554 59 75 1.0 7.0 0.00 0.04 0.04 92 1005.9
20260506223042 60 343 2.0 8.0 0.01 0.04 0.04 91 1006.1
20260506221549 60 12 2.0 8.0 0.01 0.04 0.04 91 1006.1
20260506220058 60 29 2.0 8.0 0.01 0.04 0.04 90 1006.2
20260506214547 61 79 0.0 9.0 0.01 0.04 0.04 88 1006.6
20260506213052 62 0 1.0 7.0 0.01 0.03 0.03 87 1006.7
20260506211548 62 58 2.0 9.0 0.01 0.03 0.03 86 1006.5
20260506210100 62 320 1.0 10.0 0.01 0.03 0.03 86 1006.7
20260506204554 62 60 2.0 11.0 0.02 0.03 0.03 85 1007.0
20260506203139 63 329 1.0 9.0 0.01 0.02 0.02 82 1006.9
20260506201547 63 96 2.0 9.0 0.02 0.02 0.02 81 1006.8
20260506200051 64 297 2.0 4.0 0.02 0.02 0.02 80 1006.6
20260506194549 65 0 1.0 13.0 0.01 0.01 0.01 79 1006.9
20260506193049 65 303 2.0 6.0 0.01 0.01 0.01 75 1007.0
20260506191551 67 94 1.0 14.0 0.00 0.00 0.00 72 1006.9
20260506190048 68 15 2.0 9.0 0.00 0.00 0.00 67 1006.8
20260506184556 69 133 2.0 9.0 0.00 0.00 0.00 65 1006.8
20260506183049 70 163 4.0 10.0 0.00 0.00 0.00 63 1007.0
20260506181546 70 335 3.0 10.0 0.00 0.00 0.00 62 1007.0
20260506180056 71 124 4.0 13.0 0.00 0.00 0.00 62 1007.2
20260506174604 72 0 2.0 8.0 0.00 0.00 0.00 62 1007.3
20260506173054 70 345 2.0 8.0 0.00 0.00 0.00 64 1007.4
20260506171548 70 272 2.0 12.0 0.00 0.00 0.00 64 1007.4
20260506170051 70 186 5.0 14.0 0.00 0.00 0.00 63 1007.6
20260506164554 71 318 2.0 8.0 0.00 0.00 0.00 64 1007.8
20260506163123 70 323 3.0 13.0 0.00 0.00 0.00 64 1007.7
20260506161553 70 351 3.0 10.0 0.00 0.00 0.00 64 1008.1
20260506160055 71 23 2.0 12.0 0.00 0.00 0.00 63 1008.6
20260506154557 71 97 3.0 12.0 0.00 0.00 0.00 62 1008.7
20260506153043 72 339 3.0 7.0 0.00 0.00 0.00 61 1009.0
20260506151558 72 22 2.0 12.0 0.00 0.00 0.00 62 1008.9
20260506150050 71 58 3.0 9.0 0.00 0.00 0.00 64 1009.2
20260506144558 70 115 2.0 9.0 0.00 0.00 0.00 65 1009.1
20260506143110 69 25 4.0 9.0 0.00 0.00 0.00 66 1009.1
20260506141551 69 295 1.0 10.0 0.00 0.00 0.00 68 1009.0
20260506140049 67 44 1.0 7.0 0.00 0.00 0.00 70 1009.3
20260506134549 66 0 0.0 9.0 0.00 0.00 0.00 72 1009.4
20260506133054 66 0 2.0 7.0 0.00 0.00 0.00 73 1009.9
20260506131551 65 134 0.0 7.0 0.00 0.00 0.00 74 1009.9
20260506130043 65 250 2.0 9.0 0.00 0.00 0.00 75 1009.7
20260506124549 63 307 1.0 6.0 0.00 0.00 0.00 77 1009.8
20260506123043 62 22 2.0 8.0 0.00 0.00 0.00 79 1010.0
20260506121554 62 293 1.0 8.0 0.00 0.00 0.00 80 1009.9
20260506120044 61 30 2.0 7.0 0.00 0.00 0.00 81 1010.2
20260506114552 61 345 1.0 11.0 0.00 0.00 0.00 81 1010.2
20260506113048 61 303 0.0 5.0 0.00 0.00 0.00 81 1010.5
20260506111542 61 63 0.0 10.0 0.00 0.00 0.00 81 1010.4
20260506104547 60 0 1.0 7.0 0.00 0.00 0.00 82 1010.2
20260506103044 60 107 1.0 9.0 0.00 0.00 0.00 82 1010.3
20260506101603 60 103 1.0 6.0 0.00 0.00 0.00 82 1010.2
20260506100052 60 59 1.0 6.0 0.00 0.00 0.00 82 1010.1
20260506094558 60 91 0.0 4.0 0.00 0.00 0.00 82 1010.0
20260506093053 60 0 0.0 6.0 0.00 0.00 0.00 81 1010.0
20260506091548 60 105 0.0 5.0 0.00 0.00 0.00 81 1010.1
20260506090105 60 98 1.0 5.0 0.00 0.00 0.00 81 1010.1
20260506084552 60 98 1.0 6.0 0.00 0.00 0.00 80 1010.2
20260506083046 60 340 1.0 5.0 0.00 0.00 0.00 79 1010.2
20260506081549 61 281 1.0 6.0 0.00 0.00 0.00 79 1010.0
20260506073042 61 293 1.0 7.0 0.00 0.00 0.00 77 1009.9
20260506071549 61 28 1.0 7.0 0.00 0.00 0.00 76 1009.6